FW4213 Weather Reports


Display with metric or nautical units.
time (UTC)temp
F
wind
direction
speed
MPH
gust
MPH
rain 1hr
in
rain 24hr
in
rain mn
in
humidity
%
barometer
mb
20260901221535 72 279 5.0 17.0 0.00 0.00 0.00 49 1010.5
20260901220033 72 272 5.0 13.0 0.00 0.00 0.00 49 1010.4
20260901214536 73 251 5.0 14.0 0.00 0.00 0.00 48 1010.3
20260901213108 73 259 4.0 12.0 0.00 0.00 0.00 48 1010.4
20260901211532 73 262 4.0 13.0 0.00 0.00 0.00 49 1010.4
20260901210030 72 255 5.0 15.0 0.00 0.00 0.00 50 1010.5
20260901203030 72 258 5.0 16.0 0.00 0.00 0.00 50 1010.6
20260901201530 72 255 5.0 18.0 0.00 0.00 0.00 50 1010.6
20260901200037 72 263 4.0 13.0 0.00 0.00 0.00 50 1010.7
20260901194537 72 270 4.0 14.0 0.00 0.00 0.00 50 1010.8
20260901193030 72 263 3.0 12.0 0.00 0.00 0.00 50 1011.2
20260901191532 71 270 3.0 10.0 0.00 0.00 0.00 51 1011.5
20260901190034 71 258 4.0 15.0 0.00 0.00 0.00 52 1011.6
20260901184535 70 262 3.0 12.0 0.00 0.00 0.00 54 1011.8
20260901181536 68 248 4.0 10.0 0.00 0.00 0.00 57 1011.9
20260901174531 66 249 4.0 11.0 0.00 0.00 0.00 61 1012.0
20260901173141 65 242 3.0 10.0 0.00 0.00 0.00 63 1012.1
20260901170105 64 260 3.0 7.0 0.00 0.00 0.00 65 1012.2
20260901164608 64 253 3.0 10.0 0.00 0.00 0.00 65 1012.2
20260901163033 63 254 2.0 7.0 0.00 0.00 0.00 67 1012.3
20260901160142 62 259 2.0 9.0 0.00 0.00 0.00 70 1012.1
20260901154534 61 245 3.0 10.0 0.00 0.00 0.00 71 1012.1
20260901153111 61 267 3.0 15.0 0.00 0.00 0.00 72 1012.1
20260901151535 61 244 3.0 12.0 0.00 0.00 0.00 72 1012.1
20260901150034 61 254 3.0 16.0 0.00 0.00 0.00 72 1011.9
20260901143030 61 260 3.0 8.0 0.00 0.00 0.00 71 1011.8
20260901141533 61 248 3.0 8.0 0.00 0.00 0.00 71 1011.6
20260901140038 61 265 3.0 8.0 0.00 0.00 0.00 72 1011.5
20260901134532 61 254 3.0 7.0 0.00 0.00 0.00 71 1011.4
20260901133029 62 246 3.0 11.0 0.00 0.00 0.00 70 1011.2
20260901131651 62 252 2.0 7.0 0.00 0.00 0.00 70 1011.0
20260901130031 62 246 3.0 8.0 0.00 0.00 0.00 69 1011.0
20260901124535 63 238 4.0 11.0 0.00 0.00 0.00 68 1010.8
20260901123031 63 243 3.0 7.0 0.00 0.00 0.00 67 1010.7
20260901121604 64 235 3.0 10.0 0.00 0.00 0.00 66 1010.7
20260901120029 64 239 4.0 12.0 0.00 0.00 0.00 65 1010.7
20260901114531 64 238 5.0 11.0 0.00 0.00 0.00 65 1010.8
20260901113131 64 248 4.0 11.0 0.00 0.00 0.00 64 1010.6
20260901111533 65 232 3.0 9.0 0.00 0.00 0.00 63 1010.5
20260901110036 65 240 4.0 12.0 0.00 0.00 0.00 62 1010.5
20260901104531 65 237 2.0 8.0 0.00 0.00 0.00 60 1010.4
20260901103037 66 234 2.0 10.0 0.00 0.00 0.00 59 1010.4
20260901101536 67 252 2.0 5.0 0.00 0.00 0.00 58 1010.3
20260901100030 68 243 3.0 10.0 0.00 0.00 0.00 56 1010.3
20260901094536 65 255 2.0 8.0 0.00 0.00 0.00 59 1010.3
20260901093035 63 265 1.0 5.0 0.00 0.00 0.00 60 1010.4
20260901091536 63 55 0.0 2.0 0.00 0.00 0.00 57 1010.4
20260901090031 63 87 0.0 4.0 0.00 0.00 0.00 54 1010.3
20260901084536 63 80 1.0 4.0 0.00 0.00 0.00 52 1010.5
20260901083035 62 102 1.0 4.0 0.00 0.00 0.00 49 1010.5
20260901081532 61 147 3.0 7.0 0.00 0.00 0.00 48 1010.6
20260901080029 62 122 2.0 4.0 0.00 0.00 0.00 44 1010.5
20260901074531 63 136 0.0 7.0 0.00 0.00 0.00 42 1010.5
20260901073034 63 139 4.0 8.0 0.00 0.00 0.00 42 1010.3
20260901071535 63 146 6.0 10.0 0.00 0.00 0.00 41 1010.2
20260901070032 65 141 5.0 8.0 0.00 0.00 0.00 38 1010.1
20260901064536 65 142 6.0 9.0 0.00 0.00 0.00 37 1010.0
20260901063030 66 137 2.0 8.0 0.00 0.00 0.00 36 1010.1
20260901061532 67 149 7.0 11.0 0.00 0.00 0.00 34 1010.1
20260901060108 67 154 7.0 11.0 0.00 0.00 0.00 34 1010.1
20260901054531 68 148 7.0 11.0 0.00 0.00 0.00 34 1010.2
20260901051607 69 145 9.0 14.0 0.00 0.00 0.00 33 1010.1
20260901050037 70 144 9.0 14.0 0.00 0.00 0.00 32 1010.0
20260901044535 71 145 8.0 11.0 0.00 0.00 0.00 32 1009.9
20260901043108 71 146 7.0 11.0 0.00 0.00 0.00 31 1009.9
20260901041531 72 149 6.0 9.0 0.00 0.00 0.00 30 1009.8
20260901040030 73 139 6.0 8.0 0.00 0.00 0.00 30 1009.5
20260901034532 73 156 4.0 8.0 0.00 0.00 0.00 30 1009.4
20260901033033 74 152 5.0 10.0 0.00 0.00 0.00 29 1009.1
20260901031532 75 156 5.0 8.0 0.00 0.00 0.00 29 1009.0
20260901024532 77 153 6.0 9.0 0.00 0.00 0.00 27 1008.6
20260901021530 78 139 5.0 9.0 0.00 0.00 0.00 28 1008.5
20260901020031 81 174 1.0 4.0 0.00 0.00 0.00 26 1008.5
20260901014535 84 180 0.0 1.0 0.00 0.00 0.00 24 1008.6
20260901013032 85 180 0.0 0.0 0.00 0.00 0.00 22 1008.6
20260901011644 86 214 0.0 3.0 0.00 0.00 0.00 21 1008.6
20260901010144 87 163 1.0 5.0 0.00 0.00 0.00 20 1008.7
20260901004529 87 164 2.0 7.0 0.00 0.00 0.00 19 1008.8
20260901003035 87 148 2.0 6.0 0.00 0.00 0.00 19 1008.9
20260901001534 88 162 3.0 8.0 0.00 0.00 0.00 19 1009.0
20260901000107 88 148 3.0 7.0 0.00 0.00 0.00 19 1009.2
20260831234535 89 93 2.0 7.0 0.00 0.00 0.00 19 1009.4
20260831233143 88 125 1.0 7.0 0.00 0.00 0.00 19 1009.5
20260831231535 88 145 4.0 10.0 0.00 0.00 0.00 20 1009.8
20260831230038 87 139 4.0 9.0 0.00 0.00 0.00 20 1010.1
20260831223105 87 136 3.0 8.0 0.00 0.00 0.00 21 1010.5